Погода в Кадоме

Зимбабве     18°20′07″S   29°55′11″E
темп.,
°C
ветер,
м/с
пор.,
м/с
влажн.,
%
обл.,
%
осадки,
мм/ч
давл.,
гПа
погр.,
м
8 мая, сб
сб823:00+13в27580 0.0 1020150
02:00+12в27690 0.0 1020129
05:00+11вюв25805 0.0 102097
08:00+16вюв34605 0.0 1021276
11:00+25ююв23300 0.0 10181292
14:00+28ююз23202 0.0 10142176
17:00+24зюз11290 0.0 101311
20:00+17юв25380 0.0 101769
9 мая, вс
вс923:00+14вюв38500 0.0 1018140
02:00+13в37555 0.0 1018116
05:00+12вюв23580 0.0 101856
08:00+17в23444 0.0 1019216
11:00+26юв23255 0.0 10171445
14:00+28ююз34215 0.0 10132885
17:00+24сз012945 0.0 101211
20:00+17юв223858 0.0 101730
10 мая, пн
пн1023:00+15в310464 0.0 1018174
02:00+14в310543 0.0 1018195
05:00+13в39655 0.0 1019180
08:00+18всв35570 0.0 1021296
11:00+26вюв23300 0.0 10192202
14:00+27юв34215 0.0 10162927
17:00+24вюв223010 0.0 101612
20:00+20юв511412 0.0 1020652
11 мая, вт
вт1123:00+15юв513750 0.0 1022429
02:00+12вюв24911 0.0 102391
05:00+11вюв37890 0.0 1023143
08:00+16вюв49600 0.0 1024460
11:00+23вюв34300 0.0 10221590
14:00+27вюв35200 0.0 10182605
17:00+23вюв36260 0.0 1018201
20:00+18вюв513430 0.0 1021473
12 мая, ср
ср1223:00+15вюв310590 0.0 1023380
02:00+12вюв27770 0.0 1023144
05:00+11вюв27880 0.0 1023136
08:00+16вюв36680 0.0 1024359
11:00+24вюв23360 0.0 10211659
14:00+26в24273 0.0 10172571
17:00+23вюв12323 0.0 101619
20:00+19вюв4114287 0.0 1019401